Regional Weather Roundup
Issued by NWS

Home | Current Version | Previous Version | Text Only | Print | Product List | Glossary Off
Versions: 1 2 3 4 5 6 7 8 9 10 11 12 13 14 15 16 17 18 19 20 21 22 23 24 25 26 27 28 29 30 31 32 33 34 35 36 37 38 39 40 41 42 43 44 45 46 47 48 49 50

000
ASUS43 KLOT 032200
RWRIL

ILLINOIS REGIONAL WEATHER ROUNDUP
NATIONAL WEATHER SERVICE CHICAGO/ROMEOVILLE IL
500 PM CDT MON AUG 03 2015

NOTE: "FAIR" INDICATES FEW OR NO CLOUDS BELOW 12,000 FEET WITH NO
SIGNIFICANT WEATHER AND/OR OBSTRUCTIONS TO VISIBILITY.

* THESE STATIONS ARE NOT UNDER NWS QUALITY CONTROL. THEY ALSO MAY NOT
  REPORT WEATHER SUCH AS PRECIPITATION OR FOG.

ILZ001-002-007-009-015-016-024-032300-
NORTHWEST ILLINOIS

CITY           SKY/WX    TMP DP  RH WIND       PRES   REMARKS
MOLINE         SUNNY     82  54  37 NW12      29.90F HX  81
STERLING*      SUNNY     81  54  39 W13       29.87S HX  80
$$

ILZ003-004-008-010-011-017-018-032300-
NORTH CENTRAL ILLINOIS

CITY           SKY/WX    TMP DP  RH WIND       PRES   REMARKS
ROCKFORD       MOSUNNY   81  50  33 W13       29.88F HX  80
$$

ILZ005-006-012>014-019>023-032300-
NORTHEAST ILLINOIS

CITY           SKY/WX    TMP DP  RH WIND       PRES   REMARKS
CHICAGO-OHARE  MOSUNNY   81  48  31 NW13G23   29.85S HX  80
CHICAGO-MIDWAY MOSUNNY   83  44  25 NW16      29.85S HX  81
AURORA         SUNNY     79  52  38 NW13      29.88S
WAUKEGAN       SUNNY     79  50  36 W9        29.84F
DUPAGE AIRPORT SUNNY     79  51  37 W14       29.86F
WHEELING       SUNNY     81  46  29 NW15      29.86S HX  80
NORTHERLY ISL    N/A     81  43  26 W12         N/A
$$

LMZ740>746-032300-
SOUTHERN LAKE MICHIGAN

STATION/POSITION SKY/WX   TEMP    WIND        PRES    VSBY  WAVE
                          AIR SEA DIR/SP/G                  HT/PER
                          (F)     (DEG/KT/KT) (MB)    (MI)  (FT/S)
HARRISON CRIB              78     290/ 14/ 18   N/A
BURNHAM HARBOR             82     280/ 13/ 16   N/A
CALUMET HARBOR             75      70/  6/  9   N/A
BURNS HARBOR               74      30/  5/  7 1011.5S
MICHIGAN CITY              77     340/  5/  6   N/A
MICHIGAN CITY 6N           74 75   10/  6/  8   N/A           2/ 4
ST. JOSEPH                 73 73  340/  8/ 10   N/A           2/ 4
$$

ILZ025>027-034>036-040-047-049-050-058-095>099-032300-
WEST-CENTRAL ILLINOIS

CITY           SKY/WX    TMP DP  RH WIND       PRES   REMARKS
QUINCY         MOSUNNY   82  63  52 CALM      29.91F HX  83
MACOMB*        SUNNY     81  62  51 W5        29.94F HX  82
$$

ILZ028>032-037-038-041>044-048-051>054-059>061-032300-
CENTRAL ILLINOIS

CITY           SKY/WX    TMP DP  RH WIND       PRES   REMARKS
DECATUR        MOSUNNY   86  62  44 NW10G18   29.90S HX  86
PEORIA         SUNNY     83  57  41 NW7       29.91S HX  82
SPRINGFIELD    MOSUNNY   84  66  54 W9        29.91S HX  86
TAYLORVILLE    NOT AVBL
$$

ILZ033-039-045-046-055>057-062-063-032300-
EAST-CENTRAL ILLINOIS

CITY           SKY/WX    TMP DP  RH WIND       PRES   REMARKS
CHAMPAIGN      MOSUNNY   83  65  54 W10       29.89S HX  85
MATTOON        MOSUNNY   87  61  41 W15       29.88S HX  87
$$

ILZ079-100>102-032300-
SOUTHWEST ILLINOIS

CITY           SKY/WX    TMP DP  RH WIND       PRES   REMARKS
ALTON          MOSUNNY   86  68  54 NW7       29.91F HX  89
CAHOKIA*       MOSUNNY   92  63  38 W9        29.89F HX  93
$$

ILZ064>066-069>071-074>076-080>082-084>086-088>090-092>094-032300-
SOUTH-CENTRAL ILLINOIS

CITY           SKY/WX    TMP DP  RH WIND       PRES   REMARKS
CARBONDALE     MOSUNNY   90  72  55 NW6       29.89F HX  97
MARION         PTSUNNY   91  73  55 W8        29.90F HX 100
MT. VERNON     MOSUNNY   91  66  43 W7        29.89F HX  94
SALEM*         PTSUNNY   90  67  45 NW9       29.90S HX  93
$$

ILZ067-068-072-073-078-083-087-091-032300-
SOUTHEAST ILLINOIS

CITY           SKY/WX    TMP DP  RH WIND       PRES   REMARKS
LAWRENCEVILLE  MOSUNNY   91  69  48 NW14      29.86F HX  96
HARRISBURG*    SUNNY     92  70  47 W12       29.90F HX  97
ROBINSON*      MOSUNNY   87  67  51 NW8       29.87S HX  89
$$

ABBREVIATIONS USED IN REMARKS
   TC - TEMPERATURE IN CELSIUS
  WCI - WIND CHILL INDEX
   HX - HEAT INDEX
  VSB - VISIBILITY
$$



USA.gov is the U.S. government's official web portal to all federal, state and local government web resources and services.